,,PA_Meas_PMT16A,,PR_Meas_QMR101_102,,RH_Meas_QMH101,,SR_Meas_QMS101,,TA_Meas_QMH101,,GenWind,,GenWind,
time,status,PA,status,PR,status,RH,status,SR,status,TA,status,DirAvg,status,SpdAvg,
2010-07-06, 00:00:04,VALID,918.013,VALID,0,VALID,92.8456,VALID,0,VALID,21.6518,VALID,158,VALID,0.749609,
2010-07-06, 00:01:04,VALID,917.967,VALID,0,VALID,92.9599,VALID,0,VALID,21.6729,VALID,158,VALID,0.565625,
2010-07-06, 00:02:04,VALID,917.96,VALID,0,VALID,92.9828,VALID,0,VALID,21.6518,VALID,158,VALID,0.272266,
2010-07-06, 00:03:04,VALID,917.935,VALID,0,VALID,93.0362,VALID,0,VALID,21.6924,VALID,205,VALID,0.824219,
2010-07-06, 00:04:04,VALID,917.928,VALID,0,VALID,92.9218,VALID,0,VALID,21.6924,VALID,205,VALID,0.115625,
2010-07-06, 00:05:04,VALID,917.888,VALID,0,VALID,92.9142,VALID,0,VALID,21.6908,VALID,205,VALID,0.980859,
2010-07-06, 00:06:04,VALID,917.888,VALID,0,VALID,92.8532,VALID,0,VALID,21.712,VALID,205,VALID,0.439063,
2010-07-06, 00:07:04,VALID,917.865,VALID,0,VALID,92.8075,VALID,0,VALID,21.7298,VALID,205,VALID,0.671094,
2010-07-06, 00:08:04,VALID,917.87,VALID,0,VALID,92.6169,VALID,0,VALID,21.7493,VALID,205,VALID,0.851953,
2010-07-06, 00:09:04,VALID,917.834,VALID,0,VALID,92.5178,VALID,0,VALID,21.7688,VALID,205,VALID,0.735547,
2010-07-06, 00:10:04,VALID,917.834,VALID,0,VALID,92.4187,VALID,0,VALID,21.7688,VALID,205,VALID,0.682422,
2010-07-06, 00:11:04,VALID,917.792,VALID,0,VALID,92.4339,VALID,0,VALID,21.7688,VALID,205,VALID,0.896094,
2010-07-06, 00:12:04,VALID,917.785,VALID,0,VALID,92.3272,VALID,0,VALID,21.829,VALID,205,VALID,0.600391,
2010-07-06, 00:13:04,VALID,917.786,VALID,0,VALID,92.1823,VALID,0,VALID,21.829,VALID,204,VALID,0.987109,
2010-07-06, 00:14:04,VALID,917.756,VALID,0,VALID,92.1976,VALID,0,VALID,21.7688,VALID,204,VALID,1.14258,
2010-07-06, 00:15:04,VALID,917.731,VALID,0,VALID,92.3806,VALID,0,VALID,21.7688,VALID,204,VALID,1.20586,
2010-07-06, 00:16:04,VALID,917.705,VALID,0,VALID,92.2967,VALID,0,VALID,21.7688,VALID,204,VALID,0.727344,
2010-07-06, 00:17:04,VALID,917.694,VALID,0,VALID,92.3348,VALID,0,VALID,21.7688,VALID,204,VALID,0.753125,
2010-07-06, 00:18:04,VALID,917.695,VALID,0,VALID,92.3653,VALID,0,VALID,21.7493,VALID,204,VALID,1.00625,
2010-07-06, 00:19:04,VALID,917.671,VALID,0,VALID,92.4415,VALID,0,VALID,21.7103,VALID,204,VALID,0.402344,
2010-07-06, 00:20:04,VALID,917.67,VALID,0,VALID,92.5559,VALID,0,VALID,21.7103,VALID,204,VALID,0.707031,
2010-07-06, 00:21:04,VALID,917.648,VALID,0,VALID,92.4568,VALID,0,VALID,21.6713,VALID,204,VALID,0.758984,
2010-07-06, 00:22:04,VALID,917.656,VALID,0,VALID,92.4797,VALID,0,VALID,21.6924,VALID,203,VALID,0.694922,
2010-07-06, 00:23:04,VALID,917.663,VALID,0,VALID,92.7007,VALID,0,VALID,21.6323,VALID,155,VALID,1.2207,
2010-07-06, 00:24:04,VALID,917.689,VALID,0,VALID,92.7846,VALID,0,VALID,21.6534,VALID,112,VALID,0.926172,
2010-07-06, 00:25:04,VALID,917.688,VALID,0,VALID,92.9523,VALID,0,VALID,21.6339,VALID,107,VALID,1.32383,
2010-07-06, 00:26:04,VALID,917.694,VALID,0,VALID,92.9828,VALID,0,VALID,21.6339,VALID,107,VALID,1.20156,
2010-07-06, 00:27:04,VALID,917.699,VALID,0,VALID,92.9599,VALID,0,VALID,21.6323,VALID,107,VALID,1.00312,
2010-07-06, 00:28:04,VALID,917.706,VALID,0,VALID,92.9676,VALID,0,VALID,21.6534,VALID,107,VALID,0.794141,
2010-07-06, 00:29:04,VALID,917.685,VALID,0,VALID,92.9523,VALID,0,VALID,21.6323,VALID,107,VALID,1.46914,
2010-07-06, 00:30:04,VALID,917.678,VALID,0,VALID,92.8761,VALID,0,VALID,21.6729,VALID,108,VALID,0.999219,
2010-07-06, 00:31:04,VALID,917.652,VALID,0,VALID,92.8151,VALID,0,VALID,21.6501,VALID,108,VALID,1.03164,
2010-07-06, 00:32:04,VALID,917.639,VALID,0,VALID,92.7846,VALID,0,VALID,21.6306,VALID,108,VALID,0.845312,
2010-07-06, 00:33:04,VALID,917.635,VALID,0,VALID,92.7998,VALID,0.107441,VALID,21.6713,VALID,136,VALID,0.7875,
2010-07-06, 00:34:04,VALID,917.618,VALID,0,VALID,92.7693,VALID,0,VALID,21.6306,VALID,136,VALID,0.765625,
2010-07-06, 00:35:04,VALID,917.598,VALID,0,VALID,92.7617,VALID,0.107441,VALID,21.6501,VALID,136,VALID,0.677734,
2010-07-06, 00:36:04,VALID,917.581,VALID,0,VALID,92.7846,VALID,0.107441,VALID,21.6306,VALID,136,VALID,0.693359,
2010-07-06, 00:37:04,VALID,917.549,VALID,0,VALID,92.7846,VALID,0.107441,VALID,21.6306,VALID,136,VALID,0.505469,
2010-07-06, 00:38:04,VALID,917.543,VALID,0,VALID,92.7389,VALID,0,VALID,21.629,VALID,136,VALID,0.520312,
2010-07-06, 00:39:04,VALID,917.503,VALID,0,VALID,92.7998,VALID,0.107441,VALID,21.6501,VALID,136,VALID,0.0289063,
2010-07-06, 00:40:04,VALID,917.468,VALID,0,VALID,92.7693,VALID,0.107441,VALID,21.6501,VALID,136,VALID,0.394922,
2010-07-06, 00:41:04,VALID,917.457,VALID,0,VALID,92.5483,VALID,0.107441,VALID,21.6485,VALID,136,VALID,0.273047,
2010-07-06, 00:42:04,VALID,917.42,VALID,0,VALID,92.4644,VALID,0,VALID,21.6696,VALID,136,VALID,0.124609,
2010-07-06, 00:43:04,VALID,917.407,VALID,0,VALID,92.5025,VALID,0.107441,VALID,21.6696,VALID,136,VALID,0,
2010-07-06, 00:44:04,VALID,917.398,VALID,0,VALID,92.5711,VALID,0,VALID,21.6696,VALID,136,VALID,0,
2010-07-06, 00:45:04,VALID,917.391,VALID,0,VALID,92.5254,VALID,0,VALID,21.6891,VALID,136,VALID,0.503516,
2010-07-06, 00:46:04,VALID,917.417,VALID,0,VALID,92.2967,VALID,0,VALID,21.7493,VALID,136,VALID,0.468359,
2010-07-06, 00:47:04,VALID,917.394,VALID,0,VALID,91.885,VALID,0,VALID,21.8079,VALID,136,VALID,0.66875,
2010-07-06, 00:48:04,VALID,917.386,VALID,0,VALID,91.481,VALID,0,VALID,21.8664,VALID,136,VALID,0.693359,
2010-07-06, 00:49:04,VALID,917.401,VALID,0,VALID,91.1761,VALID,0,VALID,21.8859,VALID,136,VALID,0.625781,
2010-07-06, 00:50:04,VALID,917.418,VALID,0,VALID,90.9397,VALID,0,VALID,21.9054,VALID,136,VALID,0.355469,
2010-07-06, 00:51:04,VALID,917.428,VALID,0,VALID,91.1913,VALID,0,VALID,21.8859,VALID,136,VALID,0.398438,
2010-07-06, 00:52:04,VALID,917.427,VALID,0,VALID,91.4352,VALID,0,VALID,21.8469,VALID,136,VALID,0.537891,
2010-07-06, 00:53:04,VALID,917.428,VALID,0,VALID,91.5115,VALID,0,VALID,21.8469,VALID,136,VALID,0.676953,
2010-07-06, 00:54:04,VALID,917.43,VALID,0,VALID,91.3971,VALID,0,VALID,21.8469,VALID,136,VALID,1.03477,
2010-07-06, 00:55:04,VALID,917.437,VALID,0,VALID,91.1684,VALID,0,VALID,21.8664,VALID,136,VALID,0.945313,
2010-07-06, 00:56:04,VALID,917.468,VALID,0,VALID,91.1532,VALID,0,VALID,21.8469,VALID,136,VALID,0.794922,
2010-07-06, 00:57:04,VALID,917.455,VALID,0,VALID,91.3361,VALID,0,VALID,21.8079,VALID,136,VALID,0.865625,
2010-07-06, 00:58:04,VALID,917.49,VALID,0,VALID,91.4276,VALID,0,VALID,21.7883,VALID,136,VALID,0.726953,
2010-07-06, 00:59:04,VALID,917.487,VALID,0,VALID,91.6868,VALID,0,VALID,21.7298,VALID,136,VALID,0.611719,
2010-07-06, 01:00:04,VALID,917.495,VALID,0,VALID,91.9155,VALID,0,VALID,21.6908,VALID,136,VALID,0.725,
2010-07-06, 01:01:04,VALID,917.468,VALID,0,VALID,92.1823,VALID,0,VALID,21.6518,VALID,136,VALID,1.07187,
2010-07-06, 01:02:04,VALID,917.479,VALID,0,VALID,92.3119,VALID,0,VALID,21.6323,VALID,136,VALID,0.809375,
2010-07-06, 01:03:04,VALID,917.495,VALID,0,VALID,92.3806,VALID,0,VALID,21.6128,VALID,136,VALID,0.610937,
2010-07-06, 01:04:04,VALID,917.438,VALID,0,VALID,92.411,VALID,0,VALID,21.6128,VALID,136,VALID,0.75625,
2010-07-06, 01:05:04,VALID,917.421,VALID,0,VALID,92.411,VALID,0,VALID,21.5542,VALID,136,VALID,0.09375,
2010-07-06, 01:06:04,VALID,917.41,VALID,0,VALID,92.472,VALID,0,VALID,21.5347,VALID,136,VALID,0.322656,
2010-07-06, 01:07:04,VALID,917.395,VALID,0,VALID,92.7922,VALID,0,VALID,21.4957,VALID,136,VALID,0.551562,
2010-07-06, 01:08:04,VALID,917.369,VALID,0,VALID,92.8837,VALID,0,VALID,21.4567,VALID,183,VALID,0.857031,
2010-07-06, 01:09:04,VALID,917.361,VALID,0,VALID,92.8761,VALID,0,VALID,21.4372,VALID,183,VALID,0.392578,
2010-07-06, 01:10:04,VALID,917.325,VALID,0,VALID,92.8761,VALID,0,VALID,21.4372,VALID,143,VALID,0.967969,
2010-07-06, 01:11:04,VALID,917.296,VALID,0,VALID,92.8075,VALID,0,VALID,21.4583,VALID,141,VALID,1.09141,
2010-07-06, 01:12:04,VALID,917.282,VALID,0,VALID,92.6093,VALID,0,VALID,21.4762,VALID,118,VALID,1.23555,
2010-07-06, 01:13:04,VALID,917.264,VALID,0,VALID,92.3577,VALID,0,VALID,21.5152,VALID,138,VALID,0.988281,
2010-07-06, 01:14:04,VALID,917.265,VALID,0,VALID,91.9308,VALID,0,VALID,21.5949,VALID,125,VALID,1.43242,
2010-07-06, 01:15:04,VALID,917.256,VALID,0,VALID,91.5496,VALID,0,VALID,21.6518,VALID,121,VALID,0.898047,
2010-07-06, 01:16:04,VALID,917.214,VALID,0,VALID,91.1608,VALID,0,VALID,21.7103,VALID,122,VALID,1.47305,
2010-07-06, 01:17:04,VALID,917.218,VALID,0,VALID,90.9016,VALID,0,VALID,21.751,VALID,138,VALID,0.832812,
2010-07-06, 01:18:04,VALID,917.2,VALID,0,VALID,90.5662,VALID,0,VALID,21.7688,VALID,145,VALID,1.36328,
2010-07-06, 01:19:04,VALID,917.186,VALID,0,VALID,90.4061,VALID,0,VALID,21.8079,VALID,131,VALID,0.845703,
2010-07-06, 01:20:04,VALID,917.136,VALID,0,VALID,90.246,VALID,0,VALID,21.8079,VALID,143,VALID,1.25469,
2010-07-06, 01:21:04,VALID,917.138,VALID,0,VALID,89.9334,VALID,0,VALID,21.8859,VALID,142,VALID,1.25078,
2010-07-06, 01:22:04,VALID,917.1,VALID,0,VALID,89.7962,VALID,0,VALID,21.9054,VALID,142,VALID,1.23281,
2010-07-06, 01:23:04,VALID,917.068,VALID,0,VALID,89.6514,VALID,0,VALID,21.9054,VALID,128,VALID,1.55039,
2010-07-06, 01:24:04,VALID,917.049,VALID,0,VALID,89.6437,VALID,0,VALID,21.9038,VALID,127,VALID,1.19414,
2010-07-06, 01:25:04,VALID,917.035,VALID,0,VALID,89.3693,VALID,0,VALID,21.9444,VALID,129,VALID,1.55938,
2010-07-06, 01:26:04,VALID,916.988,VALID,0,VALID,89.2778,VALID,0,VALID,21.964,VALID,135,VALID,1.27695,
2010-07-06, 01:27:04,VALID,916.973,VALID,0,VALID,89.1101,VALID,0,VALID,22.003,VALID,134,VALID,1,
2010-07-06, 01:28:04,VALID,916.96,VALID,0,VALID,89.0263,VALID,0,VALID,22.003,VALID,134,VALID,0.560547,
2010-07-06, 01:29:04,VALID,916.961,VALID,0,VALID,88.8433,VALID,0,VALID,22.0225,VALID,134,VALID,0.760547,
2010-07-06, 01:30:04,VALID,916.948,VALID,0,VALID,89.0796,VALID,0,VALID,22.0225,VALID,86,VALID,0.894531,
2010-07-06, 01:31:04,VALID,916.956,VALID,0,VALID,89.3159,VALID,0,VALID,21.9818,VALID,86,VALID,0.823828,
2010-07-06, 01:32:04,VALID,916.963,VALID,0,VALID,89.4913,VALID,0,VALID,21.9233,VALID,86,VALID,0.757422,
2010-07-06, 01:33:04,VALID,916.944,VALID,0,VALID,89.6209,VALID,0,VALID,21.9054,VALID,86,VALID,0.689844,
2010-07-06, 01:34:04,VALID,916.964,VALID,0,VALID,89.7962,VALID,0,VALID,21.8647,VALID,86,VALID,0.769531,
2010-07-06, 01:35:04,VALID,916.979,VALID,0,VALID,89.8801,VALID,0,VALID,21.8452,VALID,86,VALID,0.517187,
2010-07-06, 01:36:04,VALID,916.96,VALID,0,VALID,89.9182,VALID,0,VALID,21.8257,VALID,86,VALID,0.573828,
2010-07-06, 01:37:04,VALID,916.924,VALID,0,VALID,89.9716,VALID,0,VALID,21.8257,VALID,86,VALID,0.810938,
2010-07-06, 01:38:04,VALID,916.925,VALID,0,VALID,89.8038,VALID,0,VALID,21.8257,VALID,86,VALID,0.532812,
2010-07-06, 01:39:04,VALID,916.941,VALID,0,VALID,89.6819,VALID,0,VALID,21.8664,VALID,86,VALID,0.930078,
2010-07-06, 01:40:04,VALID,916.941,VALID,0,VALID,89.659,VALID,0.107441,VALID,21.8452,VALID,86,VALID,0.911719,
2010-07-06, 01:41:04,VALID,916.957,VALID,0,VALID,89.8801,VALID,0,VALID,21.8257,VALID,86,VALID,1.16641,
2010-07-06, 01:42:04,VALID,916.962,VALID,0,VALID,90.1164,VALID,0.107441,VALID,21.8062,VALID,86,VALID,1.075,
2010-07-06, 01:43:04,VALID,916.948,VALID,0,VALID,90.3527,VALID,0,VALID,21.7477,VALID,87,VALID,1.13359,
2010-07-06, 01:44:04,VALID,916.968,VALID,0,VALID,90.4137,VALID,0.107441,VALID,21.7282,VALID,141,VALID,1.13086,
2010-07-06, 01:45:04,VALID,916.926,VALID,0,VALID,90.2841,VALID,0,VALID,21.7282,VALID,164,VALID,1.00391,
2010-07-06, 01:46:04,VALID,916.909,VALID,0,VALID,90.1088,VALID,0,VALID,21.79,VALID,138,VALID,0.827734,
2010-07-06, 01:47:04,VALID,916.895,VALID,0,VALID,90.0325,VALID,0,VALID,21.79,VALID,137,VALID,1.09883,
2010-07-06, 01:48:04,VALID,916.924,VALID,0,VALID,89.8801,VALID,0,VALID,21.7883,VALID,131,VALID,1.52305,
2010-07-06, 01:49:04,VALID,916.894,VALID,0,VALID,89.8572,VALID,0,VALID,21.829,VALID,131,VALID,1.09063,
2010-07-06, 01:50:04,VALID,916.912,VALID,0,VALID,89.8801,VALID,0,VALID,21.8079,VALID,130,VALID,0.902734,
2010-07-06, 01:51:04,VALID,916.902,VALID,0,VALID,90.0325,VALID,0,VALID,21.8095,VALID,130,VALID,0.686328,
2010-07-06, 01:52:04,VALID,916.847,VALID,0,VALID,90.0402,VALID,0,VALID,21.7688,VALID,129,VALID,1.26836,
2010-07-06, 01:53:04,VALID,916.861,VALID,0,VALID,89.9411,VALID,0,VALID,21.7883,VALID,129,VALID,1.16602,
2010-07-06, 01:54:04,VALID,916.871,VALID,0,VALID,89.8038,VALID,0,VALID,21.8079,VALID,129,VALID,0.723828,
2010-07-06, 01:55:04,VALID,916.85,VALID,0,VALID,89.7352,VALID,0,VALID,21.8274,VALID,123,VALID,0.710156,
2010-07-06, 01:56:04,VALID,916.83,VALID,0,VALID,89.7962,VALID,0,VALID,21.8485,VALID,123,VALID,0.646094,
2010-07-06, 01:57:04,VALID,916.843,VALID,0,VALID,89.8648,VALID,0,VALID,21.829,VALID,123,VALID,0.616797,
2010-07-06, 01:58:04,VALID,916.878,VALID,0,VALID,89.9258,VALID,0,VALID,21.7883,VALID,123,VALID,1.07031,
2010-07-06, 01:59:04,VALID,916.888,VALID,0,VALID,89.9944,VALID,0,VALID,21.7883,VALID,123,VALID,0.575781,
2010-07-06, 02:00:04,VALID,916.895,VALID,0,VALID,89.9563,VALID,0,VALID,21.7883,VALID,123,VALID,1.24648,
2010-07-06, 02:01:04,VALID,916.879,VALID,0,VALID,89.9029,VALID,0.107441,VALID,21.8062,VALID,123,VALID,1.1418,
2010-07-06, 02:02:04,VALID,916.925,VALID,0,VALID,89.9563,VALID,0.107441,VALID,21.8062,VALID,114,VALID,1.15391,
2010-07-06, 02:03:04,VALID,916.925,VALID,0,VALID,89.9334,VALID,0.107441,VALID,21.7867,VALID,114,VALID,1.11602,
2010-07-06, 02:04:04,VALID,916.935,VALID,0,VALID,90.0097,VALID,0,VALID,21.7867,VALID,114,VALID,1.11797,
2010-07-06, 02:05:04,VALID,916.963,VALID,0,VALID,90.063,VALID,0,VALID,21.7672,VALID,107,VALID,1.5582,
2010-07-06, 02:06:04,VALID,916.986,VALID,0,VALID,90.0554,VALID,0.107441,VALID,21.7867,VALID,115,VALID,0.508203,
2010-07-06, 02:07:04,VALID,916.987,VALID,0,VALID,90.185,VALID,0,VALID,21.7477,VALID,115,VALID,0.992578,
2010-07-06, 02:08:04,VALID,916.971,VALID,0,VALID,90.246,VALID,0,VALID,21.7688,VALID,115,VALID,0.880859,
2010-07-06, 02:09:04,VALID,916.982,VALID,0,VALID,90.3222,VALID,0,VALID,21.7477,VALID,115,VALID,0.896875,
2010-07-06, 02:10:04,VALID,916.989,VALID,0,VALID,90.4976,VALID,0,VALID,21.7282,VALID,115,VALID,0.845703,
2010-07-06, 02:11:04,VALID,917.001,VALID,0,VALID,90.65,VALID,0,VALID,21.7087,VALID,115,VALID,0.789844,
2010-07-06, 02:12:04,VALID,917.005,VALID,0,VALID,90.7644,VALID,0.107441,VALID,21.6891,VALID,115,VALID,1.02539,
2010-07-06, 02:13:04,VALID,917.014,VALID,0,VALID,90.894,VALID,0,VALID,21.6908,VALID,115,VALID,0.50625,
2010-07-06, 02:14:04,VALID,917.012,VALID,0,VALID,91.0007,VALID,0,VALID,21.6713,VALID,115,VALID,0.300391,
2010-07-06, 02:15:04,VALID,917.031,VALID,0,VALID,91.0007,VALID,0,VALID,21.6713,VALID,114,VALID,0.882422,
2010-07-06, 02:16:04,VALID,917.035,VALID,0,VALID,90.9626,VALID,0,VALID,21.6518,VALID,115,VALID,1.07734,
2010-07-06, 02:17:04,VALID,917.023,VALID,0,VALID,90.894,VALID,0,VALID,21.6713,VALID,114,VALID,0.538672,
2010-07-06, 02:18:04,VALID,917.031,VALID,0,VALID,90.9473,VALID,0,VALID,21.6518,VALID,114,VALID,0.528125,
2010-07-06, 02:19:04,VALID,917.024,VALID,0,VALID,90.9092,VALID,0,VALID,21.6518,VALID,115,VALID,0.773828,
2010-07-06, 02:20:04,VALID,916.993,VALID,0,VALID,90.8406,VALID,0,VALID,21.6729,VALID,114,VALID,0.808594,
2010-07-06, 02:21:04,VALID,917.036,VALID,0,VALID,90.8025,VALID,0,VALID,21.6729,VALID,115,VALID,0.815625,
2010-07-06, 02:22:04,VALID,917.001,VALID,0,VALID,90.5433,VALID,0,VALID,21.6908,VALID,115,VALID,0.836328,
2010-07-06, 02:23:04,VALID,917.021,VALID,0,VALID,90.429,VALID,0,VALID,21.7315,VALID,115,VALID,0.520703,
2010-07-06, 02:24:04,VALID,916.999,VALID,0,VALID,90.246,VALID,0,VALID,21.7298,VALID,115,VALID,0.801953,
2010-07-06, 02:25:04,VALID,916.978,VALID,0,VALID,90.1545,VALID,0,VALID,21.7298,VALID,115,VALID,0.523438,
2010-07-06, 02:26:04,VALID,916.974,VALID,0,VALID,90.0021,VALID,0,VALID,21.7298,VALID,115,VALID,0.676953,
2010-07-06, 02:27:04,VALID,916.938,VALID,0,VALID,89.598,VALID,0,VALID,21.7883,VALID,115,VALID,0.930078,
2010-07-06, 02:28:04,VALID,916.93,VALID,0,VALID,89.5065,VALID,0,VALID,21.8469,VALID,115,VALID,0.314063,
2010-07-06, 02:29:04,VALID,916.914,VALID,0,VALID,89.3998,VALID,0,VALID,21.8681,VALID,115,VALID,0.248828,
2010-07-06, 02:30:04,VALID,916.897,VALID,0,VALID,89.3541,VALID,0,VALID,21.8664,VALID,115,VALID,0.146484,
2010-07-06, 02:31:04,VALID,916.88,VALID,0,VALID,89.2397,VALID,0.107441,VALID,21.8647,VALID,115,VALID,0.262891,
2010-07-06, 02:32:04,VALID,916.873,VALID,0,VALID,89.2016,VALID,0,VALID,21.8859,VALID,115,VALID,0.366797,
2010-07-06, 02:33:04,VALID,916.854,VALID,0,VALID,89.1635,VALID,0,VALID,21.9054,VALID,114,VALID,0.377344,
2010-07-06, 02:34:04,VALID,916.862,VALID,0,VALID,89.2092,VALID,0,VALID,21.8842,VALID,115,VALID,0.451953,
2010-07-06, 02:35:04,VALID,916.878,VALID,0,VALID,89.1406,VALID,0,VALID,21.8842,VALID,115,VALID,0.336719,
2010-07-06, 02:36:04,VALID,916.855,VALID,0,VALID,89.2854,VALID,0,VALID,21.8647,VALID,114,VALID,1.27461,
2010-07-06, 02:37:04,VALID,916.809,VALID,0,VALID,89.6819,VALID,0,VALID,21.7883,VALID,115,VALID,0.660547,
2010-07-06, 02:38:04,VALID,916.815,VALID,0,VALID,89.7962,VALID,0.107441,VALID,21.7282,VALID,115,VALID,0.552734,
2010-07-06, 02:39:04,VALID,916.806,VALID,0,VALID,89.842,VALID,0,VALID,21.7087,VALID,115,VALID,0.747656,
2010-07-06, 02:40:04,VALID,916.797,VALID,0,VALID,89.781,VALID,0,VALID,21.6908,VALID,115,VALID,0.766797,
2010-07-06, 02:41:04,VALID,916.782,VALID,0,VALID,90.2536,VALID,0,VALID,21.6306,VALID,101,VALID,1.18438,
2010-07-06, 02:42:04,VALID,916.756,VALID,0,VALID,90.3527,VALID,0,VALID,21.6323,VALID,100,VALID,1.00234,
2010-07-06, 02:43:04,VALID,916.725,VALID,0,VALID,90.2917,VALID,0.107441,VALID,21.5721,VALID,71,VALID,1.18555,
2010-07-06, 02:44:04,VALID,916.692,VALID,0,VALID,90.0935,VALID,0,VALID,21.6128,VALID,116,VALID,2.00977,
2010-07-06, 02:45:04,VALID,916.677,VALID,0,VALID,89.9411,VALID,0,VALID,21.6501,VALID,90,VALID,0.923047,
2010-07-06, 02:46:04,VALID,916.694,VALID,0,VALID,89.6133,VALID,0,VALID,21.6891,VALID,75,VALID,1.10547,
2010-07-06, 02:47:04,VALID,916.656,VALID,0,VALID,89.255,VALID,0,VALID,21.7282,VALID,113,VALID,1.56797,
2010-07-06, 02:48:04,VALID,916.636,VALID,0,VALID,88.95,VALID,0,VALID,21.8079,VALID,81,VALID,1.67734,
2010-07-06, 02:49:04,VALID,916.609,VALID,0,VALID,88.7747,VALID,0,VALID,21.8452,VALID,73,VALID,0.982813,
2010-07-06, 02:50:04,VALID,916.606,VALID,0,VALID,88.7137,VALID,0,VALID,21.8664,VALID,73,VALID,1.13125,
2010-07-06, 02:51:04,VALID,916.59,VALID,0,VALID,88.607,VALID,0,VALID,21.9054,VALID,60,VALID,0.765234,
2010-07-06, 02:52:04,VALID,916.554,VALID,0,VALID,88.4926,VALID,0,VALID,21.9054,VALID,61,VALID,0.709766,
2010-07-06, 02:53:04,VALID,916.541,VALID,0,VALID,88.2792,VALID,0,VALID,21.9233,VALID,129,VALID,1.54336,
2010-07-06, 02:54:04,VALID,916.498,VALID,0,VALID,88.1038,VALID,0,VALID,21.964,VALID,130,VALID,1.34063,
2010-07-06, 02:55:04,VALID,916.515,VALID,0,VALID,87.9971,VALID,0,VALID,21.9623,VALID,115,VALID,1.70547,
2010-07-06, 02:56:04,VALID,916.49,VALID,0,VALID,87.8751,VALID,0,VALID,22.003,VALID,84,VALID,1.8082,
2010-07-06, 02:57:04,VALID,916.491,VALID,0,VALID,87.8294,VALID,0,VALID,22.0225,VALID,107,VALID,1.98086,
2010-07-06, 02:58:04,VALID,916.462,VALID,0,VALID,87.837,VALID,0,VALID,22.042,VALID,118,VALID,1.10273,
2010-07-06, 02:59:04,VALID,916.469,VALID,0,VALID,87.8599,VALID,0,VALID,22.0208,VALID,111,VALID,1.17773,
2010-07-06, 03:00:04,VALID,916.452,VALID,0,VALID,87.8446,VALID,0,VALID,22.0615,VALID,98,VALID,0.723437,
2010-07-06, 03:01:04,VALID,916.417,VALID,0,VALID,87.8141,VALID,0,VALID,22.0403,VALID,107,VALID,1.47461,
2010-07-06, 03:02:04,VALID,916.417,VALID,0,VALID,87.7531,VALID,0,VALID,22.0615,VALID,136,VALID,1.33047,
2010-07-06, 03:03:04,VALID,916.413,VALID,0,VALID,87.7379,VALID,0,VALID,22.0598,VALID,114,VALID,1.04219,
2010-07-06, 03:04:04,VALID,916.42,VALID,0,VALID,87.9056,VALID,0.107441,VALID,22.0403,VALID,114,VALID,1.22969,
2010-07-06, 03:05:04,VALID,916.431,VALID,0,VALID,87.7531,VALID,0,VALID,22.0208,VALID,140,VALID,2.03789,
2010-07-06, 03:06:04,VALID,916.401,VALID,0,VALID,87.7684,VALID,0,VALID,22.0403,VALID,163,VALID,1.34844,
2010-07-06, 03:07:04,VALID,916.423,VALID,0,VALID,87.959,VALID,0,VALID,22.0208,VALID,174,VALID,1.36445,
2010-07-06, 03:08:04,VALID,916.38,VALID,0,VALID,88.0657,VALID,0,VALID,22.0225,VALID,145,VALID,0.693359,
2010-07-06, 03:09:04,VALID,916.406,VALID,0,VALID,88.0886,VALID,0,VALID,21.9818,VALID,180,VALID,0.941016,
2010-07-06, 03:10:04,VALID,916.376,VALID,0,VALID,88.1572,VALID,0,VALID,21.9818,VALID,136,VALID,0.74375,
2010-07-06, 03:11:04,VALID,916.389,VALID,0,VALID,88.302,VALID,0,VALID,21.9233,VALID,136,VALID,0.830078,
2010-07-06, 03:12:04,VALID,916.396,VALID,0,VALID,88.4164,VALID,0,VALID,21.9444,VALID,136,VALID,0.330859,
2010-07-06, 03:13:04,VALID,916.429,VALID,0,VALID,88.4621,VALID,0,VALID,21.9233,VALID,135,VALID,0.437109,
2010-07-06, 03:14:04,VALID,916.432,VALID,0,VALID,88.5841,VALID,0,VALID,21.8842,VALID,135,VALID,0.610547,
2010-07-06, 03:15:04,VALID,916.439,VALID,0,VALID,88.7061,VALID,0,VALID,21.8647,VALID,133,VALID,0.980469,
2010-07-06, 03:16:04,VALID,916.485,VALID,0,VALID,88.9119,VALID,0,VALID,21.8469,VALID,105,VALID,0.373437,
2010-07-06, 03:17:04,VALID,916.501,VALID,0,VALID,89.072,VALID,0,VALID,21.8062,VALID,105,VALID,0.590625,
2010-07-06, 03:18:04,VALID,916.518,VALID,0,VALID,89.0415,VALID,0,VALID,21.8062,VALID,108,VALID,0.791016,
2010-07-06, 03:19:04,VALID,916.495,VALID,0,VALID,89.1559,VALID,0,VALID,21.8079,VALID,110,VALID,0.422656,
2010-07-06, 03:20:04,VALID,916.542,VALID,0,VALID,89.0644,VALID,0,VALID,21.7883,VALID,110,VALID,0.85,
2010-07-06, 03:21:04,VALID,916.561,VALID,0,VALID,89.2168,VALID,0,VALID,21.7672,VALID,110,VALID,0.754297,
2010-07-06, 03:22:04,VALID,916.55,VALID,0,VALID,89.3159,VALID,0,VALID,21.7688,VALID,110,VALID,0.464844,
2010-07-06, 03:23:04,VALID,916.535,VALID,0,VALID,89.4379,VALID,0,VALID,21.7298,VALID,110,VALID,0.726563,
2010-07-06, 03:24:04,VALID,916.522,VALID,0,VALID,89.4608,VALID,0,VALID,21.7103,VALID,110,VALID,1.18828,
2010-07-06, 03:25:04,VALID,916.52,VALID,0,VALID,89.255,VALID,0,VALID,21.6891,VALID,117,VALID,1.5125,
2010-07-06, 03:26:04,VALID,916.526,VALID,0,VALID,89.0949,VALID,0,VALID,21.7087,VALID,102,VALID,1.79922,
2010-07-06, 03:27:04,VALID,916.5,VALID,0,VALID,88.9119,VALID,0,VALID,21.7477,VALID,117,VALID,1.56406,
2010-07-06, 03:28:04,VALID,916.517,VALID,0,VALID,88.668,VALID,0,VALID,21.7477,VALID,79,VALID,2.17539,
2010-07-06, 03:29:04,VALID,916.497,VALID,0,VALID,88.4469,VALID,0,VALID,21.8257,VALID,70,VALID,2.33398,
2010-07-06, 03:30:04,VALID,916.545,VALID,0,VALID,88.485,VALID,0,VALID,21.8257,VALID,49,VALID,0.675781,
2010-07-06, 03:31:04,VALID,916.52,VALID,0,VALID,88.5536,VALID,0,VALID,21.8274,VALID,121,VALID,1.2625,
2010-07-06, 03:32:04,VALID,916.523,VALID,0,VALID,88.6298,VALID,0,VALID,21.8079,VALID,114,VALID,0.943359,
2010-07-06, 03:33:04,VALID,916.551,VALID,0,VALID,88.7747,VALID,0,VALID,21.8095,VALID,68,VALID,1.42734,
2010-07-06, 03:34:04,VALID,916.555,VALID,0,VALID,89.011,VALID,0,VALID,21.7688,VALID,71,VALID,0.876172,
2010-07-06, 03:35:04,VALID,916.568,VALID,0,VALID,89.3312,VALID,0,VALID,21.6908,VALID,71,VALID,0.959375,
2010-07-06, 03:36:04,VALID,916.57,VALID,0,VALID,89.5523,VALID,0,VALID,21.6518,VALID,71,VALID,0.834766,
2010-07-06, 03:37:04,VALID,916.563,VALID,0,VALID,89.8725,VALID,0,VALID,21.6128,VALID,82,VALID,1.05664,
2010-07-06, 03:38:04,VALID,916.582,VALID,0,VALID,89.9563,VALID,0,VALID,21.5932,VALID,89,VALID,1.86992,
2010-07-06, 03:39:04,VALID,916.624,VALID,0,VALID,89.9258,VALID,0,VALID,21.5737,VALID,87,VALID,1.38711,
2010-07-06, 03:40:04,VALID,916.591,VALID,0,VALID,89.781,VALID,0,VALID,21.5932,VALID,93,VALID,1.29297,
2010-07-06, 03:41:04,VALID,916.621,VALID,0,VALID,89.2626,VALID,0,VALID,21.6128,VALID,100,VALID,2.49258,
2010-07-06, 03:42:04,VALID,916.642,VALID,0,VALID,88.9881,VALID,0,VALID,21.6518,VALID,57,VALID,1.33359,
2010-07-06, 03:43:04,VALID,916.633,VALID,0,VALID,88.6375,VALID,0,VALID,21.6908,VALID,68,VALID,1.91602,
2010-07-06, 03:44:04,VALID,916.624,VALID,0,VALID,88.5307,VALID,0,VALID,21.7493,VALID,84,VALID,2.14922,